PLF101 LDDU-EPKT

Flight info

Callsign PLF101
Flight time 1h 31m
Altitude 36000
Route MADOS1W/11 MADOS L187 GEBNI DCT EMKES DCT LURID DCT VEBAL DCT BILNA DCT BAVOK
Aircraft B738/M-SDE2E3FGHIRWXY/LB1

Departure

Time 2026-04-29 14:15
Airport Dubrovnik Ruđer Bošković Airport (LDDU)

Arrival

Time 2026-04-29 15:47
Airport Katowice Wojciech Korfanty International Airport (EPKT)
Time Latitude Longitude Altitude Speed Heading
2026-04-29 13:40 42.55908 18.26742 511 ft 0 kts 207°
2026-04-29 14:05 42.55915 18.26746 511 ft 2 kts 207°
2026-04-29 14:05 42.55928 18.26756 512 ft 2 kts 207°
2026-04-29 14:05 42.55940 18.26768 512 ft 2 kts 232°
2026-04-29 14:05 42.55947 18.26786 512 ft 2 kts 251°
2026-04-29 14:06 42.55950 18.26805 512 ft 2 kts 271°
2026-04-29 14:06 42.55948 18.26825 512 ft 2 kts 291°
2026-04-29 14:06 42.55944 18.26834 512 ft 1 kts 301°
2026-04-29 14:06 42.55943 18.26837 512 ft 0 kts 299°
2026-04-29 14:09 42.55948 18.26825 512 ft 4 kts 299°
2026-04-29 14:09 42.55965 18.26784 512 ft 5 kts 298°
2026-04-29 14:10 42.55989 18.26725 513 ft 8 kts 297°
2026-04-29 14:10 42.56023 18.26636 513 ft 12 kts 297°
2026-04-29 14:10 42.56068 18.26520 514 ft 15 kts 298°
2026-04-29 14:10 42.56123 18.26382 517 ft 17 kts 297°
2026-04-29 14:11 42.56185 18.26227 520 ft 20 kts 297°
2026-04-29 14:11 42.56254 18.26052 521 ft 21 kts 298°
2026-04-29 14:11 42.56322 18.25881 522 ft 19 kts 297°
2026-04-29 14:11 42.56385 18.25722 522 ft 18 kts 298°
2026-04-29 14:12 42.56448 18.25563 520 ft 19 kts 298°
2026-04-29 14:12 42.56516 18.25393 514 ft 21 kts 298°
2026-04-29 14:12 42.56593 18.25199 507 ft 24 kts 298°
2026-04-29 14:12 42.56675 18.24991 503 ft 21 kts 298°
2026-04-29 14:13 42.56746 18.24811 503 ft 21 kts 297°
2026-04-29 14:13 42.56820 18.24678 506 ft 15 kts 333°
2026-04-29 14:13 42.56916 18.24712 504 ft 15 kts 47°
2026-04-29 14:13 42.56938 18.24801 503 ft 8 kts 118°
2026-04-29 14:14 42.56934 18.24809 503 ft 0 kts 118°
2026-04-29 14:14 42.56934 18.24812 503 ft 2 kts 118°
2026-04-29 14:14 42.56876 18.24953 503 ft 48 kts 118°
2026-04-29 14:15 42.56605 18.25641 522 ft 112 kts 118°
2026-04-29 14:15 42.56152 18.26805 609 ft 156 kts 120°
2026-04-29 14:15 42.55669 18.28066 1270 ft 155 kts 121°
2026-04-29 14:15 42.55135 18.29352 1838 ft 161 kts 123°
2026-04-29 14:16 42.54554 18.30697 2342 ft 172 kts 122°
2026-04-29 14:16 42.53954 18.32160 2805 ft 187 kts 120°
2026-04-29 14:16 42.53243 18.33745 3209 ft 207 kts 131°
2026-04-29 14:16 42.51979 18.34751 3655 ft 223 kts 171°
2026-04-29 14:17 42.50426 18.34569 4214 ft 235 kts 199°
2026-04-29 14:17 42.49000 18.33441 4739 ft 249 kts 222°
2026-04-29 14:17 42.47841 18.31632 5281 ft 263 kts 231°
2026-04-29 14:17 42.46440 18.30040 5968 ft 270 kts 205°
2026-04-29 14:18 42.44646 18.29372 6817 ft 272 kts 189°
2026-04-29 14:18 42.42747 18.28999 7595 ft 278 kts 189°
2026-04-29 14:18 42.40838 18.28544 8408 ft 282 kts 192°
2026-04-29 14:18 42.38932 18.27970 9237 ft 285 kts 195°
2026-04-29 14:19 42.37021 18.27334 10224 ft 283 kts 195°
2026-04-29 14:19 42.35167 18.26702 11343 ft 275 kts 196°
2026-04-29 14:19 42.33355 18.26084 12426 ft 268 kts 197°
2026-04-29 14:19 42.31562 18.25474 13249 ft 271 kts 197°
2026-04-29 14:20 42.29742 18.24855 14045 ft 275 kts 198°
2026-04-29 14:20 42.27886 18.24227 14850 ft 278 kts 198°
2026-04-29 14:20 42.26030 18.23571 15634 ft 280 kts 202°
2026-04-29 14:20 42.24328 18.22406 16410 ft 275 kts 221°
2026-04-29 14:21 42.22989 18.20598 17194 ft 271 kts 237°
2026-04-29 14:21 42.21984 18.18509 17955 ft 270 kts 245°
2026-04-29 14:21 42.21281 18.16160 18663 ft 270 kts 260°
2026-04-29 14:21 42.21119 18.13660 19372 ft 269 kts 274°
2026-04-29 14:22 42.21367 18.11156 19878 ft 278 kts 283°
2026-04-29 14:22 42.22011 18.08662 20258 ft 292 kts 296°
2026-04-29 14:22 42.23167 18.06311 20610 ft 309 kts 309°
2026-04-29 14:22 42.24797 18.04300 20952 ft 326 kts 322°
2026-04-29 14:23 42.26798 18.02783 21263 ft 344 kts 333°
2026-04-29 14:23 42.29160 18.01808 21574 ft 364 kts 345°
2026-04-29 14:23 42.31726 18.01487 21855 ft 383 kts 356°
2026-04-29 14:23 42.34404 18.01878 22376 ft 396 kts
2026-04-29 14:24 42.37070 18.03001 23070 ft 404 kts 18°
2026-04-29 14:24 42.39579 18.04804 23723 ft 413 kts 29°
2026-04-29 14:24 42.41854 18.07135 24357 ft 420 kts 36°
2026-04-29 14:24 42.44080 18.09706 24940 ft 424 kts 36°
2026-04-29 14:25 42.46305 18.12369 25526 ft 430 kts 39°
2026-04-29 14:25 42.48445 18.15204 26089 ft 433 kts 40°
2026-04-29 14:25 42.50700 18.17890 26651 ft 433 kts 33°
2026-04-29 14:25 42.53198 18.20093 27168 ft 431 kts 23°
2026-04-29 14:26 42.55943 18.21682 27730 ft 428 kts 13°
2026-04-29 14:26 42.58844 18.22595 28253 ft 425 kts
2026-04-29 14:26 42.61768 18.22796 28782 ft 421 kts 353°
2026-04-29 14:26 42.64668 18.22296 29279 ft 418 kts 343°
2026-04-29 14:27 42.67423 18.21111 29845 ft 415 kts 334°
2026-04-29 14:27 42.70042 18.19568 30277 ft 417 kts 332°
2026-04-29 14:27 42.72695 18.17902 30776 ft 419 kts 331°
2026-04-29 14:28 42.77998 18.14484 31693 ft 425 kts 332°
2026-04-29 14:28 42.80698 18.13041 32436 ft 424 kts 338°
2026-04-29 14:28 42.83556 18.11941 33123 ft 423 kts 342°
2026-04-29 14:28 42.86419 18.11086 33647 ft 424 kts 344°
2026-04-29 14:29 42.89279 18.10341 34242 ft 423 kts 345°
2026-04-29 14:29 42.92181 18.09622 34777 ft 421 kts 345°
2026-04-29 14:29 42.95025 18.08919 35205 ft 420 kts 345°
2026-04-29 14:29 42.97896 18.08197 35621 ft 419 kts 344°
2026-04-29 14:30 43.00758 18.07461 35884 ft 421 kts 344°
2026-04-29 14:30 43.03635 18.06707 36053 ft 424 kts 344°
2026-04-29 14:30 43.06499 18.05950 36068 ft 419 kts 343°
2026-04-29 14:31 43.12163 18.04441 36081 ft 414 kts 343°
2026-04-29 14:31 43.17824 18.02907 36088 ft 415 kts 343°
2026-04-29 14:32 43.23496 18.01361 36088 ft 415 kts 343°
2026-04-29 14:32 43.29126 17.99825 36103 ft 414 kts 343°
2026-04-29 14:33 43.34757 17.98286 36110 ft 415 kts 343°
2026-04-29 14:33 43.40406 17.96738 36110 ft 414 kts 343°
2026-04-29 14:34 43.46043 17.95193 36110 ft 414 kts 343°
2026-04-29 14:34 43.51692 17.93642 36103 ft 414 kts 343°
2026-04-29 14:35 43.57311 17.92093 36097 ft 414 kts 343°
2026-04-29 14:35 43.62946 17.90537 36086 ft 414 kts 343°
2026-04-29 14:36 43.68556 17.88986 36088 ft 413 kts 343°
2026-04-29 14:36 43.74194 17.87425 36086 ft 413 kts 343°
2026-04-29 14:37 43.79818 17.85865 36095 ft 413 kts 343°
2026-04-29 14:37 43.85415 17.84210 36092 ft 411 kts 341°
2026-04-29 14:38 43.90930 17.82331 36098 ft 410 kts 340°
2026-04-29 14:38 43.96440 17.80417 36100 ft 411 kts 340°
2026-04-29 14:39 44.01969 17.78515 36099 ft 410 kts 340°
2026-04-29 14:39 44.07509 17.76621 36104 ft 410 kts 340°
2026-04-29 14:40 44.13023 17.74743 36108 ft 410 kts 340°
2026-04-29 14:40 44.18543 17.72867 36117 ft 408 kts 340°
2026-04-29 14:41 44.24066 17.70984 36121 ft 408 kts 340°
2026-04-29 14:41 44.29557 17.69103 36128 ft 409 kts 340°
2026-04-29 14:42 44.35071 17.67213 36123 ft 408 kts 340°
2026-04-29 14:42 44.40557 17.65329 36124 ft 408 kts 340°
2026-04-29 14:43 44.46070 17.63438 36127 ft 408 kts 340°
2026-04-29 14:43 44.51562 17.61551 36128 ft 407 kts 340°
2026-04-29 14:44 44.57053 17.59658 36128 ft 406 kts 340°
2026-04-29 14:44 44.62508 17.57770 36130 ft 407 kts 340°
2026-04-29 14:45 44.68023 17.55862 36138 ft 406 kts 340°
2026-04-29 14:45 44.73473 17.53972 36151 ft 405 kts 340°
2026-04-29 14:46 44.78960 17.52064 36153 ft 405 kts 340°
2026-04-29 14:46 44.84407 17.50162 36169 ft 404 kts 340°
2026-04-29 14:47 44.89820 17.48275 36164 ft 405 kts 340°
2026-04-29 14:47 44.95290 17.46363 36178 ft 404 kts 340°
2026-04-29 14:48 45.00759 17.44450 36176 ft 405 kts 340°
2026-04-29 14:48 45.06183 17.42549 36176 ft 404 kts 340°
2026-04-29 14:49 45.11621 17.40659 36176 ft 404 kts 341°
2026-04-29 14:49 45.17218 17.39412 36177 ft 409 kts 347°
2026-04-29 14:50 45.22871 17.38715 36177 ft 411 kts 349°
2026-04-29 14:50 45.28572 17.38103 36177 ft 411 kts 349°
2026-04-29 14:51 45.34266 17.37467 36174 ft 409 kts 348°
2026-04-29 14:51 45.39939 17.36811 36171 ft 410 kts 348°
2026-04-29 14:52 45.45575 17.36150 36166 ft 409 kts 348°
2026-04-29 14:52 45.51241 17.35475 36168 ft 409 kts 348°
2026-04-29 14:53 45.56866 17.34801 36164 ft 408 kts 348°
2026-04-29 14:53 45.62526 17.34120 36172 ft 408 kts 348°
2026-04-29 14:54 45.68123 17.33446 36180 ft 405 kts 348°
2026-04-29 14:54 45.73772 17.32765 36187 ft 407 kts 347°
2026-04-29 14:55 45.79410 17.32082 36181 ft 407 kts 347°
2026-04-29 14:55 45.85025 17.31405 36190 ft 405 kts 347°
2026-04-29 14:56 45.90637 17.30722 36193 ft 406 kts 347°
2026-04-29 14:56 45.96272 17.30115 36195 ft 408 kts 349°
2026-04-29 14:57 46.01980 17.30534 36189 ft 420 kts
2026-04-29 14:57 46.07745 17.32176 36176 ft 423 kts
2026-04-29 14:58 46.13513 17.34092 36477 ft 426 kts
2026-04-29 14:58 46.16383 17.35049 36884 ft 424 kts
2026-04-29 14:58 46.19228 17.35991 37149 ft 424 kts
2026-04-29 14:59 46.24985 17.37868 37182 ft 425 kts
2026-04-29 14:59 46.30750 17.39731 37192 ft 424 kts
2026-04-29 15:00 46.36491 17.41580 37193 ft 424 kts
2026-04-29 15:00 46.42242 17.43429 37197 ft 424 kts
2026-04-29 15:01 46.47974 17.45276 37191 ft 425 kts
2026-04-29 15:01 46.53715 17.47130 37180 ft 424 kts
2026-04-29 15:02 46.59481 17.48993 37190 ft 424 kts
2026-04-29 15:02 46.65248 17.50860 37174 ft 424 kts
2026-04-29 15:03 46.70989 17.52725 37188 ft 426 kts
2026-04-29 15:03 46.76723 17.54589 37179 ft 426 kts
2026-04-29 15:04 46.82494 17.56471 37186 ft 428 kts
2026-04-29 15:04 46.88282 17.58366 37173 ft 425 kts
2026-04-29 15:05 46.94037 17.60251 37180 ft 426 kts
2026-04-29 15:05 46.99800 17.62147 37174 ft 425 kts
2026-04-29 15:06 47.05574 17.64049 37179 ft 426 kts
2026-04-29 15:06 47.11351 17.65952 37177 ft 427 kts
2026-04-29 15:07 47.17107 17.67854 37179 ft 426 kts
2026-04-29 15:07 47.22888 17.69766 37183 ft 428 kts
2026-04-29 15:08 47.28656 17.71682 37174 ft 425 kts
2026-04-29 15:08 47.34413 17.73596 37178 ft 426 kts
2026-04-29 15:09 47.40166 17.75517 37177 ft 426 kts
2026-04-29 15:09 47.43083 17.76492 37287 ft 428 kts
2026-04-29 15:09 47.45955 17.77453 37214 ft 424 kts
2026-04-29 15:10 47.51655 17.79368 37197 ft 423 kts
2026-04-29 15:10 47.57448 17.81309 37186 ft 426 kts
2026-04-29 15:11 47.63169 17.83234 37193 ft 424 kts
2026-04-29 15:11 47.68914 17.85171 37199 ft 424 kts
2026-04-29 15:12 47.74668 17.87116 37187 ft 426 kts
2026-04-29 15:12 47.80411 17.89062 37192 ft 425 kts
2026-04-29 15:13 47.86175 17.91019 37186 ft 426 kts
2026-04-29 15:13 47.91931 17.92981 37195 ft 424 kts
2026-04-29 15:14 47.97686 17.94947 37186 ft 423 kts
2026-04-29 15:14 48.03432 17.96910 37193 ft 426 kts
2026-04-29 15:15 48.09185 17.98881 37183 ft 426 kts
2026-04-29 15:15 48.14916 18.00852 37208 ft 423 kts
2026-04-29 15:16 48.20657 18.02829 37192 ft 422 kts
2026-04-29 15:16 48.26361 18.04795 37205 ft 423 kts
2026-04-29 15:17 48.32064 18.06768 37201 ft 421 kts
2026-04-29 15:17 48.37759 18.08741 37205 ft 423 kts
2026-04-29 15:18 48.43480 18.10727 37214 ft 423 kts
2026-04-29 15:18 48.49173 18.12715 37213 ft 420 kts
2026-04-29 15:19 48.54870 18.14702 37208 ft 423 kts
2026-04-29 15:19 48.60568 18.16694 37214 ft 421 kts
2026-04-29 15:20 48.66240 18.18683 37221 ft 420 kts
2026-04-29 15:20 48.71926 18.20680 37213 ft 420 kts
2026-04-29 15:20 48.74752 18.21598 37003 ft 415 kts
2026-04-29 15:21 48.77593 18.22367 36413 ft 415 kts
2026-04-29 15:21 48.80448 18.23053 35698 ft 418 kts
2026-04-29 15:21 48.83306 18.23714 34977 ft 420 kts
2026-04-29 15:21 48.86203 18.24393 34219 ft 423 kts
2026-04-29 15:22 48.89084 18.25082 33510 ft 426 kts
2026-04-29 15:22 48.92001 18.25792 32793 ft 430 kts
2026-04-29 15:22 48.94932 18.26520 32195 ft 429 kts
2026-04-29 15:22 48.97853 18.27260 31681 ft 425 kts
2026-04-29 15:23 49.00743 18.28001 31143 ft 422 kts
2026-04-29 15:23 49.03634 18.28746 30578 ft 417 kts
2026-04-29 15:23 49.06459 18.29476 30046 ft 412 kts
2026-04-29 15:23 49.09222 18.30193 29535 ft 406 kts
2026-04-29 15:24 49.12016 18.30918 29023 ft 401 kts
2026-04-29 15:24 49.14705 18.31614 28537 ft 395 kts
2026-04-29 15:24 49.17411 18.32314 28048 ft 390 kts
2026-04-29 15:24 49.20040 18.32994 27563 ft 385 kts
2026-04-29 15:25 49.22657 18.33671 27087 ft 380 kts
2026-04-29 15:25 49.25240 18.34340 26612 ft 375 kts
2026-04-29 15:25 49.27773 18.34995 26147 ft 370 kts
2026-04-29 15:25 49.30296 18.35649 25691 ft 365 kts
2026-04-29 15:26 49.32774 18.36293 25243 ft 360 kts
2026-04-29 15:26 49.35223 18.36931 24795 ft 355 kts
2026-04-29 15:26 49.37640 18.37561 24345 ft 350 kts
2026-04-29 15:26 49.40007 18.38176 23907 ft 345 kts
2026-04-29 15:27 49.42347 18.38785 23470 ft 341 kts
2026-04-29 15:27 49.44648 18.39385 23055 ft 336 kts
2026-04-29 15:27 49.46938 18.39983 22651 ft 330 kts
2026-04-29 15:27 49.49179 18.40570 22236 ft 325 kts
2026-04-29 15:28 49.51371 18.41145 21849 ft 321 kts
2026-04-29 15:28 49.52851 18.41532 21576 ft 318 kts
2026-04-29 15:28 49.55808 18.42293 21043 ft 333 kts
2026-04-29 15:28 49.58081 18.42876 20639 ft 335 kts
2026-04-29 15:29 49.60354 18.43475 20233 ft 329 kts
2026-04-29 15:29 49.64775 18.44651 19423 ft 318 kts
2026-04-29 15:30 49.69077 18.45785 18657 ft 311 kts
2026-04-29 15:30 49.71187 18.46340 18304 ft 309 kts
2026-04-29 15:30 49.73297 18.46893 17926 ft 306 kts
2026-04-29 15:30 49.75370 18.47437 17559 ft 303 kts
2026-04-29 15:31 49.77426 18.47979 17193 ft 301 kts
2026-04-29 15:31 49.79483 18.48523 16825 ft 298 kts
2026-04-29 15:31 49.81511 18.49061 16468 ft 296 kts
2026-04-29 15:31 49.83526 18.49595 16110 ft 294 kts
2026-04-29 15:32 49.85545 18.50130 15750 ft 292 kts
2026-04-29 15:32 49.87537 18.50656 15411 ft 290 kts
2026-04-29 15:32 49.89510 18.51179 15052 ft 288 kts
2026-04-29 15:32 49.91475 18.51702 14711 ft 286 kts
2026-04-29 15:33 49.93434 18.52227 14359 ft 285 kts
2026-04-29 15:33 49.95377 18.52746 14027 ft 283 kts
2026-04-29 15:33 49.97288 18.53256 13689 ft 281 kts
2026-04-29 15:33 49.99220 18.53772 13350 ft 280 kts
2026-04-29 15:34 50.01127 18.54280 12997 ft 279 kts
2026-04-29 15:34 50.03027 18.54786 12669 ft 279 kts
2026-04-29 15:34 50.04946 18.55297 12328 ft 280 kts
2026-04-29 15:34 50.06872 18.55812 11990 ft 281 kts
2026-04-29 15:35 50.08800 18.56330 11651 ft 282 kts
2026-04-29 15:35 50.10749 18.56860 11303 ft 283 kts
2026-04-29 15:35 50.12682 18.57384 10958 ft 285 kts
2026-04-29 15:35 50.14621 18.57906 10614 ft 286 kts
2026-04-29 15:36 50.16575 18.58434 10267 ft 280 kts 10°
2026-04-29 15:36 50.18460 18.58945 9929 ft 275 kts 10°
2026-04-29 15:36 50.20322 18.59440 9599 ft 270 kts 10°
2026-04-29 15:36 50.22159 18.59927 9278 ft 265 kts 10°
2026-04-29 15:37 50.23930 18.60401 8964 ft 260 kts 10°
2026-04-29 15:37 50.25715 18.60881 8649 ft 256 kts 11°
2026-04-29 15:37 50.27439 18.61299 8353 ft 252 kts
2026-04-29 15:37 50.29162 18.61563 8162 ft 245 kts
2026-04-29 15:38 50.30857 18.61776 7865 ft 243 kts
2026-04-29 15:38 50.32516 18.62004 7556 ft 241 kts
2026-04-29 15:38 50.34175 18.62252 7216 ft 240 kts
2026-04-29 15:38 50.35841 18.62511 6867 ft 238 kts
2026-04-29 15:39 50.37478 18.62767 6522 ft 237 kts
2026-04-29 15:39 50.39119 18.63025 6171 ft 236 kts
2026-04-29 15:39 50.40729 18.63279 5988 ft 229 kts
2026-04-29 15:39 50.42263 18.63521 5827 ft 221 kts
2026-04-29 15:40 50.43766 18.63757 5681 ft 213 kts
2026-04-29 15:40 50.45212 18.64048 5526 ft 206 kts 14°
2026-04-29 15:40 50.46470 18.64941 5382 ft 198 kts 39°
2026-04-29 15:40 50.47290 18.66661 5111 ft 201 kts 62°
2026-04-29 15:41 50.47659 18.68795 4745 ft 209 kts 81°
2026-04-29 15:41 50.47707 18.71091 4447 ft 211 kts 85°
2026-04-29 15:41 50.47708 18.73380 4233 ft 208 kts 85°
2026-04-29 15:41 50.47703 18.75609 4090 ft 200 kts 85°
2026-04-29 15:42 50.47696 18.77757 3967 ft 191 kts 85°
2026-04-29 15:42 50.47689 18.79783 3799 ft 183 kts 85°
2026-04-29 15:42 50.47684 18.81739 3610 ft 177 kts 85°
2026-04-29 15:42 50.47678 18.83618 3448 ft 170 kts 85°
2026-04-29 15:43 50.47673 18.85432 3297 ft 163 kts 84°
2026-04-29 15:43 50.47667 18.87179 3154 ft 156 kts 84°
2026-04-29 15:43 50.47663 18.88859 3034 ft 155 kts 84°
2026-04-29 15:43 50.47660 18.90553 2843 ft 156 kts 84°
2026-04-29 15:44 50.47652 18.92187 2648 ft 148 kts 83°
2026-04-29 15:44 50.47653 18.93827 2454 ft 144 kts 84°
2026-04-29 15:44 50.47650 18.95362 2263 ft 140 kts 84°
2026-04-29 15:44 50.47648 18.96850 2073 ft 132 kts 84°
2026-04-29 15:45 50.47631 18.98340 1926 ft 139 kts 86°
2026-04-29 15:45 50.47599 18.99871 1731 ft 140 kts 83°
2026-04-29 15:45 50.47596 19.01390 1564 ft 139 kts 83°
2026-04-29 15:45 50.47604 19.02898 1373 ft 140 kts 83°
2026-04-29 15:46 50.47610 19.04417 1201 ft 138 kts 84°
2026-04-29 15:46 50.47604 19.05950 1010 ft 142 kts 84°
2026-04-29 15:46 50.47606 19.07405 978 ft 113 kts 91°
2026-04-29 15:46 50.47601 19.08296 981 ft 53 kts 90°
2026-04-29 15:47 50.47600 19.08748 981 ft 39 kts 89°
2026-04-29 15:47 50.47601 19.09153 984 ft 31 kts 88°
2026-04-29 15:47 50.47591 19.09357 987 ft 13 kts 122°
2026-04-29 15:47 50.47510 19.09393 987 ft 12 kts 180°
2026-04-29 15:48 50.47432 19.09391 990 ft 9 kts 180°
2026-04-29 15:48 50.47347 19.09388 993 ft 15 kts 180°
2026-04-29 15:48 50.47252 19.09381 995 ft 12 kts 207°
2026-04-29 15:48 50.47231 19.09259 994 ft 13 kts 270°
2026-04-29 15:49 50.47232 19.09091 993 ft 17 kts 270°
2026-04-29 15:49 50.47232 19.08882 989 ft 20 kts 270°
2026-04-29 15:49 50.47232 19.08655 986 ft 21 kts 270°
2026-04-29 15:49 50.47233 19.08417 985 ft 21 kts 270°
2026-04-29 15:50 50.47234 19.08181 983 ft 22 kts 270°
2026-04-29 15:50 50.47234 19.07938 983 ft 21 kts 270°
2026-04-29 15:50 50.47234 19.07772 983 ft 5 kts 269°
2026-04-29 15:50 50.47212 19.07760 983 ft 4 kts 181°
2026-04-29 15:51 50.47180 19.07759 983 ft 4 kts 180°
2026-04-29 15:51 50.47149 19.07759 983 ft 3 kts 180°
2026-04-29 15:51 50.47148 19.07759 983 ft 0 kts 180°